Weather History for Pratica di Mare, Italy

Change the Weather History Date:

Tuesday, October 30, 2012

  Actual Average Record
Temperature  
Mean Temperature 51 °F -  
Max Temperature 60 °F 63 °F 73 °F (2006)
Min Temperature 42 °F 47 °F 42 °F (2012)
Degree Days  
Heating Degree Days 14    
Growing Degree Days 1 (Base 50)    
Moisture  
Dew Point 44 °F    
Average Humidity 70    
Maximum Humidity 87    
Minimum Humidity 35    
Precipitation  
Precipitation 0.00 in 0.16 in - ()
Sea Level Pressure  
Sea Level Pressure 29.85 in    
Wind  
Wind Speed 7 mph ()    
Max Wind Speed 13 mph    
Max Gust Speed -    
Visibility 7.1 miles    
Events      
Averages and records for this station are not official NWS values.
T = Trace of Precipitation, MM = Missing Value Source: Averaged Metar Reports

Daily Weather History Graph

Daily Weather History Graph

Search for Another Location

Airport:

Trip Planner

Search our weather history database for the weather conditions in past years. The results will help you decide how hot, cold, wet, or windy it might be!

Date:

Astronomy

Oct. 30, 2012 Rise Set
Actual Time 6:40 AM CET 5:07 PM CET
Civil Twilight 6:11 AM CET 5:35 PM CET
Nautical Twilight 5:38 AM CET 6:08 PM CET
Astronomical Twilight 5:06 AM CET 6:40 PM CET
Moon 5:24 PM CET (10/30) 7:11 AM CET (10/30)
Length of Visible Light 11h 24m
Length of Day
10h 26m
Full, 100% of the Moon is Illuminated
Oct 30
Full
Nov 7
Last Quarter
Nov 13
New
Nov 20
First Quarter
Nov 28
Full

Hourly Weather History & Observations

Time (CET) Temp. Windchill Dew Point Humidity Pressure Visibility Wind Dir Wind Speed Gust Speed Precip Events Conditions
12:55 AM 46.4 °F 42.9 °F 41.0 °F 81% 29.89 in 6.2 mi NNE 6.9 mph - N/A   Scattered Clouds
1:00 AM 46 °F - 41 °F 78% 29.89 in 7 mi NNE 6.9 mph - -   Partly Cloudy
1:55 AM 44.6 °F 40.2 °F 41.0 °F 87% 29.86 in 6.2 mi NNE 8.1 mph - N/A   Scattered Clouds
2:55 AM 44.6 °F 40.2 °F 41.0 °F 87% 29.86 in 6.2 mi NE 8.1 mph - N/A   Scattered Clouds
4:00 AM 45 °F - 42 °F 85% 29.89 in 7 mi East 8.1 mph - -   Scattered Clouds
4:55 AM 44.6 °F 40.7 °F 41.0 °F 87% 29.86 in 6.2 mi NE 6.9 mph - N/A   Scattered Clouds
5:55 AM 46.4 °F 41.9 °F 42.8 °F 87% 29.86 in 6.2 mi NE 9.2 mph - N/A   Scattered Clouds
6:55 AM 42.8 °F 37.0 °F 39.2 °F 87% 29.86 in 6.2 mi NNE 10.4 mph - N/A   Partly Cloudy
7:00 AM 44 °F - 39 °F 75% 29.88 in 9 mi NNE 10.4 mph - -   Scattered Clouds
7:55 AM 42.8 °F 39.3 °F 39.2 °F 87% 29.74 in 6.2 mi NNE 5.8 mph - N/A   Scattered Clouds
8:55 AM 46.4 °F 43.5 °F 39.2 °F 76% 29.89 in 6.2 mi NNE 5.8 mph - N/A   Mostly Cloudy
9:55 AM 51.8 °F - 44.6 °F 76% 29.89 in 6.2 mi NE 5.8 mph - N/A   Mostly Cloudy
10:00 AM 51 °F - 44 °F 69% 29.91 in 9 mi NE 5.8 mph - -   Partly Cloudy
10:55 AM 57.2 °F - 42.8 °F 59% 29.89 in 6.2 mi SE 2.3 mph - N/A   Scattered Clouds
11:55 AM 59.0 °F - 39.2 °F 48% 29.89 in 6.2 mi ESE 5.8 mph - N/A   Scattered Clouds
1:00 PM 60 °F - 40 °F 35% 29.88 in 19 mi ESE 8.1 mph - -   Scattered Clouds
2:55 PM 60.8 °F - 42.8 °F 52% 29.86 in 6.2 mi ESE 8.1 mph - N/A   Scattered Clouds
3:55 PM 59.0 °F - 42.8 °F 55% 29.83 in 6.2 mi ESE 8.1 mph - N/A   Scattered Clouds
4:00 PM 58 °F - 44 °F 48% 29.86 in 12 mi ESE 8.1 mph - -   Mostly Cloudy
4:55 PM 59.0 °F - 48.2 °F 67% 29.83 in 6.2 mi East 5.8 mph - N/A   Scattered Clouds
5:55 PM 59.0 °F - 48.2 °F 67% 29.83 in 6.2 mi East 8.1 mph - N/A   Scattered Clouds
6:55 PM 57.2 °F - 46.4 °F 67% 29.83 in 6.2 mi East 8.1 mph - N/A   Scattered Clouds
7:00 PM 57 °F - 47 °F 60% 29.85 in 6 mi East 8.1 mph - -   Mostly Cloudy
7:55 PM 55.4 °F - 46.4 °F 72% 29.83 in 6.2 mi East 9.2 mph - N/A   Scattered Clouds
8:55 PM 57.2 °F - 46.4 °F 67% 29.83 in 6.2 mi East 9.2 mph - N/A   Scattered Clouds
9:55 PM 57.2 °F - 48.2 °F 72% 29.80 in 6.2 mi East 12.7 mph - N/A   Scattered Clouds
10:00 PM 57 °F - 48 °F 63% 29.83 in 6 mi East 12.7 mph - -   Partly Cloudy
10:55 PM 57.2 °F - 48.2 °F 72% 29.77 in 6.2 mi East 12.7 mph - N/A   Scattered Clouds
11:55 PM 55.4 °F - 48.2 °F 77% 29.77 in 6.2 mi East 12.7 mph - N/A   Scattered Clouds